[[{"header":{"parameterUnit":"m.s-1","parameterCategory":2,"la1":30.2992,"la2":30.254,"lo1":-89.0895,"lo2":-89.0443,"dy":0.0025,"dx":0.0025,"nx":19,"ny":19,"refTime":"2026-03-19T03:00:00:Z","depth":"0","parameterNumber":2,"parameterNumberName":"U-component_of_CURRENTS"},"data":[0,0,0,0.3566,0.3565,0.352,0.352,0.3492,0.3492,0,0,0,0,0,0,0,0,0,0,0,0.357,0.357,0.3566,0.3565,0.352,0.352,0.3492,0.3492,0,0,0,0,0,0,0,0,0,0,0,0.357,0.357,0.357,0.3565,0.352,0.352,0.3492,0.3512,0,0,0,0,0,0,0,0,0,0,0.355,0.3571,0.357,0.357,0.3565,0.3521,0.352,0.3513,0.3511,0.3529,0,0.353,0,0.3528,0.3493,0.3493,0,0,0,0.354,0.3572,0.3555,0.357,0.3565,0.3521,0.3534,0.3511,0.351,0.3527,0.3529,0.3528,0.3528,0.3493,0.3493,0.3534,0.3534,0,0,0.3543,0.3564,0.3557,0.3555,0.3566,0.3535,0.3533,0.351,0.3517,0.3529,0.3528,0.3527,0.3493,0.3493,0.3533,0.3534,0,0,0,0.3567,0.3566,0.3549,0.3556,0.3555,0.3535,0.3531,0.3517,0.351,0.3527,0.3527,0.3493,0.3494,0.3533,0.3534,0.3475,0,0,0,0.3567,0.3582,0.355,0.3563,0.3556,0.3536,0.354,0.3511,0.3509,0.3527,0.3493,0.3494,0.3533,0.3533,0.3476,0.3427,0,0,0,0.357,0.3583,0.3579,0.3564,0.3557,0.3536,0.3527,0.351,0.3511,0.3493,0.3494,0.3532,0.3533,0.3477,0.343,0.3315,0,0,0,0.3589,0.3603,0.358,0.3607,0.3557,0.3561,0.3526,0.354,0.3533,0.3493,0.3533,0.3534,0.3477,0.3432,0.3318,0.3188,0.3162,0,0,0.3617,0.3607,0.3625,0.3604,0.3607,0.3564,0.3552,0.3537,0.3546,0.3537,0.3537,0.3476,0.343,0.3315,0.3232,0.3204,0,0,0,0.3641,0.3636,0.3643,0.3638,0.3636,0.3572,0.3567,0.3545,0.3519,0.3549,0.3508,0.3481,0.3409,0.334,0.3319,0.3004,0.3537,0.3537,0.3537,0.3647,0.365,0.365,0.3632,0.363,0.3589,0.3533,0.3499,0.3535,0.3521,0.3458,0.3365,0.3296,0.3277,0.2956,0.35,0.3499,0.3499,0.3499,0.3636,0.3609,0.3614,0.3605,0.3558,0.3531,0.3468,0.3454,0.3361,0.3433,0.3365,0.3315,0.325,0.2916,0.3496,0.3497,0.3497,0.3497,0.3497,0.3589,0.3567,0.3574,0.3539,0.3477,0.3445,0.3317,0.3302,0.329,0.3233,0.3122,0.3122,0.2798,0.3193,0.3192,0.3192,0.3191,0.319,0.319,0.3509,0.3515,0.347,0.3446,0.3395,0.3305,0.321,0.3128,0.3034,0.3028,0.3027,0.2722,0.327,0.3247,0.3179,0.3181,0.3183,0.3184,0.3184,0.3403,0.3418,0.3359,0.3314,0.3197,0.3046,0.3003,0.2812,0.2741,0.2662,0.2377,0.2897,0.288,0.2898,0.2867,0.2704,0.2704,0.2704,0.2704,0.332,0.3328,0.3236,0.3149,0.3026,0.2914,0.2618,0.2464,0.2211,0.2019,0.2001,0.2017,0.2051,0.1988,0.2026,0.1979,0.1594,0.1592,0.159,0.3232,0.3235,0.3142,0.3087,0.295,0.2748,0.2417,0.2067,0.1679,0.1516,0.1573,0.162,0.1626,0.1705,0.1608,0.1687,0.1615,0,0]},{"header":{"parameterUnit":"m.s-1","parameterCategory":2,"la1":30.2992,"la2":30.254,"lo1":-89.0895,"lo2":-89.0443,"dy":0.0025,"dx":0.0025,"nx":19,"ny":19,"refTime":"2026-03-19T03:00:00:Z","depth":"0","parameterNumber":3,"parameterNumberName":"V-component_of_CURRENTS"},"data":[0,0,0,-0.0044,-0.0042,0.0095,0.0096,0.0299,0.0301,0,0,0,0,0,0,0,0,0,0,0,-0.01,-0.0099,-0.0044,-0.0042,0.0095,0.0096,0.0299,0.0301,0,0,0,0,0,0,0,0,0,0,0,-0.01,-0.0099,-0.0099,-0.0042,0.0095,0.0096,0.0298,0.0194,0,0,0,0,0,0,0,0,0,0,0.006,-0.0011,-0.0099,-0.0099,-0.0041,0.0095,0.0096,0.0189,0.02,0.0238,0,0.0238,0,0.0268,0.0313,0.0313,0,0,0,-0.0018,-0.0021,0.002,-0.0099,-0.004,0.0094,0.004,0.0195,0.0208,0.0253,0.0241,0.0248,0.0271,0.0314,0.0315,0.0484,0.0484,0,0,-0.0026,-0.0069,0.001,0.0027,-0.0031,0.0035,0.0044,0.0203,0.0203,0.0241,0.0253,0.0275,0.0315,0.0317,0.0483,0.0484,0,0,0,-0.0064,-0.0075,-0.0038,0.0018,0.0038,0.0039,0.0049,0.0197,0.0209,0.0256,0.0277,0.0316,0.0318,0.0483,0.0484,0.0438,0,0,0,-0.0067,-0.0098,-0.0042,-0.0065,0.0034,0.0113,0.0038,0.0198,0.0217,0.0276,0.0316,0.032,0.0482,0.0483,0.0438,0.0437,0,0,0,-0.0101,-0.0101,-0.0093,-0.0068,-0.0018,0.0111,0.0134,0.0203,0.023,0.0314,0.0321,0.0482,0.0483,0.0438,0.0437,0.0533,0,0,0,-0.0137,-0.0137,-0.0095,-0.0088,-0.002,0.0048,0.0134,0.0192,0.0252,0.0317,0.0482,0.0484,0.0438,0.0437,0.0532,0.0617,0.0631,0,0,-0.0154,-0.0141,-0.0134,-0.0093,-0.0048,0.0032,0.0109,0.0219,0.0293,0.0435,0.0439,0.0438,0.0437,0.0533,0.0685,0.0698,0,0,0,-0.015,-0.0141,-0.0125,-0.0086,-0.0031,0.0063,0.0159,0.0232,0.0369,0.0333,0.0475,0.0478,0.0539,0.0588,0.0598,0.059,0.0489,0.0489,0.0489,-0.0191,-0.0154,-0.0131,-0.007,-0.0026,0.0091,0.0183,0.0314,0.0354,0.0416,0.0466,0.0545,0.0594,0.0603,0.0592,0.0488,0.0487,0.0487,0.0487,-0.0185,-0.0153,-0.0113,-0.0076,0.0009,0.0082,0.0252,0.0311,0.0488,0.0483,0.0545,0.0568,0.0612,0.0596,0.0485,0.0485,0.0486,0.0486,0.0486,-0.0176,-0.0155,-0.0141,-0.008,-0.0002,0.0098,0.0242,0.0348,0.0473,0.0527,0.0658,0.0659,0.063,0.0574,0.0574,0.0575,0.0575,0.0575,0.0575,-0.0165,-0.0148,-0.0125,-0.0071,-0.0031,0.0067,0.0248,0.0373,0.0566,0.0653,0.0655,0.0671,0.0574,0.0552,0.0582,0.0581,0.058,0.0579,0.0579,-0.0132,-0.0138,-0.01,-0.0074,0.0021,0.0152,0.0273,0.0549,0.0687,0.0807,0.0824,0.0756,0.0803,0.0796,0.0783,0.0871,0.0871,0.0871,0.0872,-0.0117,-0.0114,-0.0063,-0.0011,0.0076,0.0204,0.0461,0.0675,0.0879,0.096,0.0936,0.0893,0.0882,0.093,0.092,0.0908,0.1026,0.1026,0.1026,-0.0099,-0.0083,-0.0036,0.0016,0.011,0.029,0.0559,0.0803,0.1014,0.1026,0.0906,0.09,0.0825,0.0808,0.087,0.0857,0.0833,0,0]}],[{"header":{"parameterUnit":"m.s-1","parameterCategory":2,"la1":30.2992,"la2":30.254,"lo1":-89.0895,"lo2":-89.0443,"dy":0.0025,"dx":0.0025,"nx":19,"ny":19,"refTime":"2026-03-19T03:00:00:Z","depth":"2","parameterNumber":2,"parameterNumberName":"U-component_of_CURRENTS"},"data":[0,0,0,0.0412,0.0413,0.0492,0.0492,0.0584,0.0584,0,0,0,0,0,0,0,0,0,0,0,0.039,0.039,0.0412,0.0414,0.0492,0.0492,0.0584,0.0584,0,0,0,0,0,0,0,0,0,0,0,0.039,0.039,0.0391,0.0414,0.0492,0.0492,0.0583,0.0528,0,0,0,0,0,0,0,0,0,0,0.0453,0.0433,0.039,0.0391,0.0414,0.0492,0.0493,0.0525,0.0531,0.0544,0,0.0559,0,0.057,0.059,0.059,0,0,0,0.0419,0.0428,0.0447,0.0391,0.0415,0.0492,0.0458,0.0529,0.0535,0.0552,0.0561,0.0564,0.0571,0.059,0.0591,0.0709,0.071,0,0,0.0414,0.0406,0.0442,0.0451,0.044,0.0456,0.046,0.0533,0.0543,0.0561,0.0566,0.0573,0.0591,0.0592,0.0708,0.0709,0,0,0,0.0398,0.0403,0.0421,0.0447,0.046,0.0458,0.0463,0.054,0.0545,0.0567,0.0574,0.0591,0.0592,0.0708,0.0709,0.0737,0,0,0,0.0396,0.0394,0.0419,0.0416,0.0459,0.0502,0.0468,0.054,0.0549,0.0573,0.0591,0.0593,0.0707,0.0708,0.0735,0.0728,0,0,0,0.0385,0.0392,0.0402,0.0415,0.0446,0.0501,0.0511,0.0543,0.0553,0.059,0.0593,0.0706,0.0708,0.0732,0.0726,0.0764,0,0,0,0.0373,0.0372,0.0402,0.0404,0.0445,0.0471,0.0511,0.0546,0.0577,0.0592,0.0707,0.0709,0.0732,0.0724,0.0762,0.0634,0.0633,0,0,0.0355,0.037,0.0368,0.0396,0.0416,0.046,0.0507,0.057,0.0611,0.0681,0.0684,0.0735,0.0725,0.0763,0.0729,0.0724,0,0,0,0.0351,0.0364,0.0368,0.0397,0.042,0.0483,0.0541,0.0594,0.07,0.0637,0.0761,0.0754,0.0777,0.0696,0.0694,0.0716,0.0716,0.0716,0.0716,0.0355,0.0365,0.0379,0.041,0.0435,0.0513,0.0577,0.0674,0.0701,0.0774,0.0797,0.0868,0.0785,0.0781,0.0829,0.0829,0.0829,0.083,0.083,0.0365,0.0388,0.0412,0.0436,0.0494,0.0552,0.0659,0.0717,0.0844,0.0854,0.0876,0.0754,0.0779,0.0832,0.0832,0.0831,0.0831,0.0831,0.0831,0.0403,0.0412,0.0435,0.0479,0.0538,0.0598,0.0662,0.0761,0.0868,0.0908,0.0836,0.0833,0.0868,0.0934,0.0934,0.0934,0.0934,0.0935,0.0935,0.0439,0.0452,0.0477,0.052,0.0538,0.0584,0.0681,0.0734,0.0807,0.085,0.0849,0.0904,0.09,0.0875,0.0937,0.0937,0.0936,0.0936,0.0936,0.0467,0.0483,0.0497,0.0511,0.0521,0.0512,0.0576,0.0625,0.0716,0.073,0.0819,0.0821,0.0797,0.0797,0.0769,0.0801,0.0801,0.0801,0.0801,0.0484,0.0495,0.0485,0.0465,0.0431,0.0462,0.0453,0.0454,0.0544,0.0559,0.057,0.0504,0.0515,0.0472,0.048,0.0445,0.0392,0.0391,0.0391,0.0483,0.0479,0.0453,0.0435,0.0364,0.0388,0.0386,0.0324,0.0301,0.0375,0.0504,0.0772,0.0702,0.0709,0.0663,0.0667,0.0619,0,0]},{"header":{"parameterUnit":"m.s-1","parameterCategory":2,"la1":30.2992,"la2":30.254,"lo1":-89.0895,"lo2":-89.0443,"dy":0.0025,"dx":0.0025,"nx":19,"ny":19,"refTime":"2026-03-19T03:00:00:Z","depth":"2","parameterNumber":3,"parameterNumberName":"V-component_of_CURRENTS"},"data":[0,0,0,0.0046,0.0047,0.0124,0.0124,0.0205,0.0206,0,0,0,0,0,0,0,0,0,0,0,0.0004,0.0004,0.0046,0.0047,0.0124,0.0124,0.0205,0.0206,0,0,0,0,0,0,0,0,0,0,0,0.0004,0.0004,0.0003,0.0048,0.0124,0.0124,0.0205,0.0153,0,0,0,0,0,0,0,0,0,0,0.0082,0.0049,0.0004,0.0003,0.0048,0.0124,0.0124,0.0151,0.0157,0.0163,0,0.0159,0,0.0187,0.021,0.0211,0,0,0,0.0055,0.0044,0.0059,0.0003,0.0049,0.0124,0.0092,0.0154,0.0161,0.017,0.016,0.0164,0.0189,0.0211,0.0211,0.0323,0.0323,0,0,0.0051,0.0028,0.0055,0.0062,0.0047,0.0089,0.0094,0.0158,0.0158,0.016,0.0166,0.019,0.0211,0.0212,0.0322,0.0323,0,0,0,0.0033,0.0025,0.004,0.0058,0.0076,0.0091,0.0097,0.0155,0.0158,0.0167,0.0191,0.0211,0.0212,0.0321,0.0322,0.0299,0,0,0,0.0031,0.0015,0.0037,0.0026,0.0074,0.0121,0.0092,0.0153,0.0162,0.0191,0.0212,0.0213,0.032,0.0322,0.0298,0.0303,0,0,0,0.0004,0.0013,0.0013,0.0024,0.0056,0.0121,0.0128,0.0156,0.0176,0.0211,0.0213,0.032,0.0321,0.0297,0.0301,0.0398,0,0,0,-0.0009,0.0012,0.0012,0.0047,0.0055,0.0125,0.0128,0.0171,0.0199,0.0212,0.032,0.0322,0.0297,0.03,0.0395,0.0485,0.0504,0,0,0.002,0.0014,0.004,0.0043,0.0104,0.0116,0.0191,0.0212,0.0233,0.0297,0.03,0.0298,0.0301,0.0397,0.0586,0.0602,0,0,0,0.0052,0.0061,0.0084,0.0112,0.0155,0.0195,0.0225,0.0252,0.03,0.0258,0.0341,0.0345,0.0406,0.0456,0.0469,0.033,0.033,0.033,0.033,0.0044,0.0077,0.0119,0.0159,0.0194,0.025,0.0297,0.0342,0.0331,0.0356,0.0356,0.0456,0.0508,0.0519,0.0385,0.0385,0.0385,0.0385,0.0385,0.0078,0.0099,0.0131,0.0168,0.0202,0.0238,0.0343,0.0351,0.0449,0.0403,0.0464,0.0466,0.0532,0.0384,0.0384,0.0384,0.0384,0.0384,0.0384,0.0054,0.0074,0.0076,0.012,0.0154,0.021,0.0322,0.037,0.0439,0.0487,0.0594,0.0595,0.0457,0.0517,0.0518,0.0518,0.0519,0.0519,0.0519,0.0017,0.0041,0.0044,0.008,0.01,0.0166,0.0299,0.042,0.0571,0.0612,0.0613,0.0503,0.0498,0.0469,0.0526,0.0525,0.0524,0.0523,0.0523,0.003,-0.0004,0.0031,0.0042,0.0137,0.0282,0.0388,0.066,0.076,0.0882,0.0724,0.0717,0.0753,0.0743,0.0723,0.0843,0.0843,0.0843,0.0843,0.0015,0.001,0.0053,0.0113,0.0241,0.0359,0.0643,0.0765,0.0853,0.0773,0.0774,0.0715,0.0707,0.0735,0.0726,0.0703,0.0817,0.0816,0.0816,0.0039,0.0044,0.009,0.0141,0.0304,0.0495,0.0748,0.0808,0.072,0.0802,0.0633,0.0868,0.0785,0.0769,0.0815,0.0799,0.0763,0,0]}],[{"header":{"parameterUnit":"m.s-1","parameterCategory":2,"la1":30.2992,"la2":30.254,"lo1":-89.0895,"lo2":-89.0443,"dy":0.0025,"dx":0.0025,"nx":19,"ny":19,"refTime":"2026-03-19T03:00:00:Z","depth":"4","parameterNumber":2,"parameterNumberName":"U-component_of_CURRENTS"},"data":[0,0,0,-0.0508,-0.0508,-0.0542,-0.0542,-0.0609,-0.061,0,0,0,0,0,0,0,0,0,0,0,-0.0503,-0.0503,-0.0508,-0.0508,-0.0542,-0.0542,-0.0609,-0.061,0,0,0,0,0,0,0,0,0,0,0,-0.0503,-0.0503,-0.0503,-0.0509,-0.0541,-0.0542,-0.0609,-0.0578,0,0,0,0,0,0,0,0,0,0,-0.0543,-0.0538,-0.0503,-0.0504,-0.0509,-0.0541,-0.0542,-0.0577,-0.058,-0.06,0,-0.0609,0,-0.0608,-0.0615,-0.0615,0,0,0,-0.0511,-0.0535,-0.0539,-0.0504,-0.0509,-0.0541,-0.0527,-0.0578,-0.0583,-0.0605,-0.061,-0.0612,-0.0609,-0.0615,-0.0615,-0.0622,-0.0622,0,0,-0.0509,-0.0514,-0.0536,-0.0541,-0.0524,-0.0526,-0.0528,-0.0581,-0.0591,-0.061,-0.0614,-0.061,-0.0615,-0.0616,-0.0623,-0.0622,0,0,0,-0.0502,-0.0513,-0.0515,-0.0539,-0.0542,-0.0527,-0.053,-0.0589,-0.0589,-0.0614,-0.0611,-0.0616,-0.0617,-0.0623,-0.0623,-0.0544,0,0,0,-0.0501,-0.0508,-0.0514,-0.0518,-0.054,-0.0563,-0.0537,-0.0585,-0.0591,-0.0611,-0.0616,-0.0617,-0.0624,-0.0623,-0.0547,-0.0522,0,0,0,-0.05,-0.0508,-0.0512,-0.0518,-0.053,-0.0562,-0.0565,-0.0586,-0.0589,-0.0615,-0.0618,-0.0624,-0.0623,-0.055,-0.0527,-0.0579,0,0,0,-0.0502,-0.0519,-0.0513,-0.0531,-0.0529,-0.0546,-0.0564,-0.0587,-0.0609,-0.0616,-0.0624,-0.0623,-0.0551,-0.053,-0.058,-0.057,0,0,0,-0.0523,-0.0522,-0.0531,-0.0525,-0.0534,-0.0542,-0.0556,-0.0593,-0.0595,-0.0611,-0.0611,-0.0546,-0.0528,-0.0579,-0.0504,0,0,0,0,-0.0536,-0.0541,-0.0544,-0.0547,-0.0554,-0.0549,-0.0583,-0.0575,-0.0551,-0.0601,-0.0546,-0.0537,-0.0573,-0.0569,-0.0617,-0.0618,-0.0618,-0.0618,-0.0618,-0.0558,-0.0553,-0.0559,-0.0555,-0.0567,-0.0563,-0.0552,-0.0542,-0.0549,-0.0507,-0.0472,-0.0455,-0.0444,-0.0468,-0.0467,-0.0467,-0.0467,-0.0466,-0.0466,-0.0565,-0.056,-0.0559,-0.0564,-0.0553,-0.0556,-0.0514,-0.0486,-0.044,-0.0416,-0.0456,-0.0482,-0.0458,-0.046,-0.0461,-0.0462,-0.0463,-0.0463,-0.0463,-0.0558,-0.0554,-0.0558,-0.0558,-0.0535,-0.0515,-0.047,-0.0386,-0.0381,-0.0359,-0.0413,-0.0434,-0.0448,-0.0383,-0.0383,-0.0383,-0.0383,-0.0383,-0.0383,-0.0545,-0.0547,-0.0547,-0.054,-0.0525,-0.0466,-0.0402,-0.0412,-0.0389,-0.0338,-0.0343,-0.0429,-0.0432,-0.0445,-0.0385,-0.0384,-0.0384,-0.0384,-0.0384,-0.0532,-0.0533,-0.0531,-0.0523,-0.0486,-0.0427,-0.0404,-0.0414,-0.0443,-0.0463,-0.0369,-0.0369,-0.0419,-0.0423,-0.0439,-0.0374,-0.0373,-0.0373,0,-0.0519,-0.052,-0.0512,-0.0492,-0.0449,-0.0398,-0.0404,-0.0443,-0.0431,-0.0355,-0.0483,-0.0372,-0.0372,-0.0429,-0.0433,-0.045,0,0,0,-0.0506,-0.0506,-0.0494,-0.048,-0.0419,-0.0375,-0.0389,-0.0383,-0.0378,-0.0474,-0.0365,-0.0367,-0.0525,-0.0388,-0.0469,-0.0472,-0.05,0,0]},{"header":{"parameterUnit":"m.s-1","parameterCategory":2,"la1":30.2992,"la2":30.254,"lo1":-89.0895,"lo2":-89.0443,"dy":0.0025,"dx":0.0025,"nx":19,"ny":19,"refTime":"2026-03-19T03:00:00:Z","depth":"4","parameterNumber":3,"parameterNumberName":"V-component_of_CURRENTS"},"data":[0,0,0,0.0442,0.0443,0.05,0.05,0.0592,0.0592,0,0,0,0,0,0,0,0,0,0,0,0.0427,0.0428,0.0442,0.0443,0.05,0.05,0.0591,0.0592,0,0,0,0,0,0,0,0,0,0,0,0.0427,0.0428,0.0428,0.0443,0.05,0.05,0.0591,0.0545,0,0,0,0,0,0,0,0,0,0,0.0487,0.047,0.0428,0.0428,0.0443,0.05,0.05,0.0542,0.0547,0.057,0,0.0582,0,0.0587,0.0599,0.0599,0,0,0,0.0447,0.0465,0.048,0.0428,0.0444,0.0499,0.0475,0.0545,0.0551,0.0577,0.0583,0.0586,0.0588,0.0599,0.06,0.0681,0.0681,0,0,0.0443,0.0439,0.0475,0.0484,0.0464,0.0473,0.0477,0.0548,0.0558,0.0584,0.0588,0.059,0.06,0.0601,0.0681,0.0681,0,0,0,0.0432,0.0437,0.045,0.048,0.0488,0.0475,0.0479,0.0555,0.0559,0.0589,0.0591,0.06,0.0602,0.0681,0.0681,0.0658,0,0,0,0.043,0.043,0.0448,0.0446,0.0486,0.0519,0.0484,0.0554,0.0562,0.059,0.06,0.0602,0.068,0.0681,0.0659,0.0656,0,0,0,0.0424,0.0429,0.0437,0.0446,0.0468,0.0518,0.0526,0.0556,0.0563,0.0599,0.0603,0.068,0.0681,0.0659,0.0656,0.0567,0,0,0,0.0416,0.0432,0.0437,0.0454,0.0468,0.0493,0.0526,0.0558,0.0587,0.0601,0.0681,0.0681,0.0659,0.0657,0.0569,0.0499,0,0,0,0.043,0.0434,0.0442,0.0447,0.0464,0.0485,0.0514,0.0571,0.0603,0.0659,0.066,0.0659,0.0657,0.0567,0.0528,0,0,0,0,0.0441,0.0445,0.0452,0.0463,0.0482,0.0496,0.0545,0.0564,0.0618,0.0622,0.0674,0.0674,0.0618,0.0584,0.0683,0.0683,0.0683,0.0683,0.0683,0.0437,0.0444,0.0455,0.0466,0.0484,0.0515,0.0524,0.0562,0.0615,0.0632,0.0667,0.0604,0.0572,0.0677,0.0677,0.0677,0.0677,0.0676,0.0676,0.044,0.044,0.0453,0.0478,0.049,0.0535,0.0552,0.0576,0.058,0.0647,0.0592,0.058,0.0675,0.0675,0.0675,0.0675,0.0676,0.0676,0.0676,0.0426,0.0428,0.0455,0.0483,0.054,0.0593,0.0557,0.0606,0.0581,0.0542,0.0479,0.0568,0.0552,0.0519,0.0518,0.0518,0.0518,0.0517,0.0517,0.0405,0.0423,0.0458,0.0508,0.056,0.06,0.0594,0.0491,0.0474,0.0448,0.0547,0.055,0.0555,0.0543,0.0511,0.0512,0.0513,0.0513,0.0514,0.0375,0.0395,0.0431,0.0476,0.0539,0.051,0.0545,0.0354,0.0221,0.0134,0.0354,0.0364,0.035,0.0359,0.034,0.0246,0.0245,0.0244,0,0.0343,0.0359,0.0403,0.0444,0.0395,0.0437,0.0233,0.0109,0.0088,0.0162,0.0115,0.0367,0.0375,0.0361,0.0368,0.0344,0,0,0,0.0304,0.0318,0.0338,0.0378,0.0336,0.0188,0.0143,0.0079,0.0246,0.0013,0.0216,0.0224,0.0225,0.0493,0.0493,0.0499,0.0478,0,0]}]]